GEFSCGP_con_probscp_126.txt.gz
Probability
0 0 0 0 0 0 0 0 0 0 1 2 4 9 16 20 21 23 24 24 26 28 28 29 31 32 31 31 32 33 35 35 32 27 23 19 13 7 4 4 4 5 4 3
0 0 0 0 0 0 0 0 0 0 1 2 4 8 14 18 20 21 23 24 27 30 30 30 30 28 27 27 27 28 28 29 27 24 21 18 13 9 6 4 4 5 4 2
0 0 0 0 0 0 0 0 0 0 0 1 2 6 11 15 17 19 19 21 24 28 29 28 26 23 20 19 19 19 19 20 19 18 17 16 14 11 8 5 3 4 3 2
0 0 0 0 0 0 0 0 0 0 0 0 1 3 6 11 14 15 16 17 19 23 24 23 21 17 14 13 13 12 13 13 13 12 12 13 12 9 7 4 2 2 2 2
0 0 0 0 0 0 0 0 0 0 0 0 0 1 3 8 11 12 13 15 17 20 21 19 17 14 12 11 10 9 10 9 8 6 7 8 7 6 5 4 2 1 1 1
0 0 0 0 0 0 0 0 0 0 0 0 0 1 2 5 7 9 12 14 17 18 18 17 15 13 12 11 9 8 9 7 4 3 3 4 3 3 3 2 2 1 0 0
0 0 0 0 0 0 0 0 0 0 1 0 1 1 1 2 4 7 11 13 15 15 14 14 13 12 12 12 10 8 8 6 2 2 3 2 2 1 2 1 1 1 0 0
0 0 0 0 0 0 0 0 0 0 0 0 1 1 1 1 3 6 9 11 13 11 9 10 10 11 12 12 11 9 7 5 2 2 4 4 2 2 2 2 1 0 0 0
0 0 0 0 1 0 0 0 0 0 0 0 0 0 1 2 4 5 6 8 8 7 6 7 8 9 10 10 10 9 7 4 3 3 4 5 4 3 3 2 1 0 0 0
0 0 0 1 1 1 1 1 0 0 0 0 0 0 1 2 4 4 4 4 4 4 5 7 7 7 7 7 8 8 6 4 3 2 3 4 4 3 3 2 1 0 0 0
0 0 0 1 2 2 2 1 0 0 0 0 0 0 0 1 2 3 3 2 2 3 5 6 6 5 5 5 6 8 6 3 1 1 1 1 2 2 1 1 0 0 0 0
0 0 0 1 2 3 2 1 0 0 0 0 0 0 1 2 3 2 1 1 1 1 4 6 6 5 4 4 6 8 7 3 0 0 0 0 0 0 0 0 0 0 0 0
0 0 0 1 1 2 2 1 1 0 0 0 0 1 2 3 3 2 1 2 3 3 5 8 9 7 6 6 7 9 7 3 1 0 0 0 0 0 0 0 0 0 0 0
0 0 0 0 1 2 3 3 2 1 0 0 0 1 1 1 1 1 2 5 7 7 8 10 11 11 10 10 10 10 8 4 2 1 1 1 1 1 0 0 0 0 0 0
1 1 1 1 2 3 4 3 2 1 0 0 0 1 1 0 1 2 4 6 8 9 10 13 14 14 13 11 11 12 11 8 5 4 5 4 3 3 1 1 0 0 0 0
2 2 2 1 2 2 3 2 1 1 1 1 1 2 2 2 3 5 6 7 7 8 10 12 14 14 12 11 11 14 16 14 11 9 8 7 6 5 4 2 1 1 0 0
2 3 3 2 2 2 3 2 2 2 3 3 3 3 4 4 5 6 5 5 6 7 8 10 12 12 12 12 13 17 20 19 16 14 11 9 9 8 6 5 3 2 1 1
1 2 3 2 3 3 3 3 2 2 2 4 6 7 8 8 7 5 4 4 4 5 6 7 10 12 13 14 16 21 24 22 20 18 16 15 13 11 9 7 5 4 3 3
0 1 2 3 3 3 3 3 2 1 1 4 8 11 13 14 12 8 6 5 5 6 6 9 13 16 16 16 18 22 25 25 24 22 21 22 20 16 13 9 6 6 5 5
0 0 1 3 3 3 3 2 1 0 1 4 6 10 14 16 14 11 9 9 9 9 9 11 15 17 16 15 16 19 23 25 26 26 26 27 25 22 18 13 8 6 6 6
0 0 1 2 3 3 2 1 1 0 1 2 3 6 10 13 13 12 12 11 11 11 10 11 13 14 13 12 13 16 18 22 24 24 25 27 26 26 23 17 12 8 6 6
0 0 1 2 2 2 1 1 1 1 2 2 2 4 7 10 13 14 12 11 11 10 8 8 8 10 10 11 12 14 15 17 19 19 18 19 22 24 24 19 14 11 8 7
0 0 0 1 1 1 0 1 2 3 3 3 3 4 6 12 17 17 14 11 10 8 7 6 6 8 10 12 12 12 13 16 18 16 13 13 15 18 18 15 12 11 9 7
0 0 0 0 0 0 0 1 2 3 3 3 3 4 8 13 16 15 12 10 8 8 7 5 5 7 9 10 11 11 12 14 16 14 11 11 13 13 12 12 12 11 9 8
0 0 0 0 0 0 0 1 2 2 2 3 3 4 6 8 8 7 7 6 6 7 7 6 5 6 6 7 7 8 9 9 10 10 9 10 11 10 9 9 10 9 8 8
0 0 0 0 0 0 0 1 2 2 1 2 3 4 3 3 3 2 3 3 4 6 7 6 6 6 5 4 5 6 6 6 5 7 7 8 8 8 7 6 5 5 6 6

GEFSCGP_con_probscp_132.txt.gz
Probability
0 0 0 0 0 0 0 0 0 0 0 0 0 0 2 5 8 10 14 17 16 14 14 17 19 22 23 21 17 13 10 13 19 21 17 12 5 1 0 1 2 1 0 0
0 0 0 0 0 0 0 0 0 0 0 0 0 0 1 5 7 9 12 14 13 11 11 16 19 21 21 19 16 12 8 9 14 16 15 10 5 2 1 1 2 1 0 0
0 0 0 0 0 0 0 0 0 0 0 0 0 0 0 2 3 5 7 10 11 8 8 13 18 20 19 16 12 9 6 5 6 10 10 7 5 4 3 3 2 1 0 0
0 0 0 0 0 0 0 0 0 0 0 0 0 0 0 0 1 2 4 8 10 8 7 10 15 17 15 12 8 6 4 3 3 5 6 5 4 5 6 5 3 1 1 1
0 0 0 0 0 0 0 0 0 0 0 0 0 0 0 0 1 1 2 5 9 10 9 9 11 12 11 8 5 3 2 3 3 3 2 1 2 5 6 6 4 3 2 2
0 0 0 0 0 0 0 0 0 0 0 0 0 0 0 0 1 1 1 3 8 11 11 9 9 10 9 7 4 1 1 2 3 2 1 0 1 3 5 5 4 3 3 3
0 0 0 0 0 0 0 0 0 0 0 0 0 0 0 0 0 0 1 3 7 9 10 10 10 9 8 6 3 1 0 1 2 1 0 0 1 3 4 4 3 3 3 3
0 0 0 0 0 0 0 0 0 0 0 0 0 0 0 0 0 0 1 3 7 8 8 10 11 10 8 5 3 1 0 1 1 1 0 0 1 2 2 3 3 3 2 1
0 0 0 0 0 0 0 0 0 0 0 0 0 0 0 0 0 0 1 3 6 7 7 10 13 12 8 4 1 0 0 0 0 0 0 0 1 1 1 1 2 1 1 0
0 0 0 0 0 0 0 0 0 0 0 0 0 0 0 0 0 0 0 2 4 5 6 9 12 12 8 4 1 0 0 0 0 0 0 0 0 0 0 1 2 1 0 0
0 0 0 0 0 0 0 0 0 0 0 0 0 0 0 0 0 0 0 1 2 3 4 6 9 9 7 4 2 1 0 0 0 0 0 1 1 1 1 1 1 1 0 0
0 0 0 0 0 0 0 0 0 0 0 0 0 0 0 0 0 0 0 1 2 3 3 3 5 6 6 5 4 2 1 0 0 0 0 1 1 1 0 0 0 0 0 0
0 0 0 0 0 0 0 0 0 0 0 0 0 0 0 0 0 0 0 0 1 2 2 1 2 3 4 4 4 2 1 0 0 0 0 0 0 0 0 0 0 0 0 0
0 0 0 0 0 0 0 0 0 0 0 0 0 0 0 0 0 0 0 0 0 1 1 1 1 1 1 2 2 2 1 1 0 0 0 0 0 0 0 0 0 0 0 0
0 0 0 0 0 0 0 0 0 0 0 0 0 0 0 0 0 0 0 0 0 0 0 0 0 0 0 0 1 2 2 2 1 0 0 0 0 0 0 0 0 0 0 0
0 0 0 0 0 0 0 0 0 0 0 0 0 0 1 1 0 0 0 0 0 0 0 0 0 0 0 0 0 1 2 2 1 0 0 0 0 0 0 1 1 0 0 0
0 0 0 0 0 0 0 0 0 0 0 0 0 1 2 1 0 0 0 0 0 0 0 0 0 0 0 1 1 1 2 3 3 1 0 0 1 1 1 2 2 1 1 1
0 0 0 0 0 0 0 0 0 0 0 0 0 1 1 1 1 0 0 0 0 0 0 0 0 0 0 2 3 3 3 5 4 1 1 2 3 3 2 3 3 3 2 2
0 0 0 0 0 0 0 0 0 0 0 0 0 0 0 1 1 0 0 0 0 0 0 0 0 0 0 2 5 5 5 5 4 3 4 5 6 5 4 3 2 2 3 3
0 0 0 0 0 0 0 0 0 0 0 0 0 0 0 0 0 0 0 0 0 0 0 0 0 0 0 2 5 6 6 5 5 5 6 7 7 6 4 3 1 2 3 3
0 0 0 0 0 0 0 0 0 0 0 0 0 0 0 0 0 0 0 0 0 0 0 0 0 0 0 1 4 6 5 4 5 6 6 7 6 4 3 2 1 2 3 3
0 0 0 0 0 0 0 0 0 0 0 0 0 0 0 0 0 0 0 0 0 0 0 0 0 0 0 1 3 4 4 4 5 6 7 8 6 4 2 1 1 1 2 2
0 0 0 0 0 0 0 0 0 0 0 0 0 0 0 0 0 0 0 0 0 0 0 0 0 0 0 1 3 4 4 4 5 6 6 7 6 4 3 1 0 0 1 1
0 0 0 0 0 0 0 0 0 0 0 0 0 0 0 0 0 0 0 0 0 0 0 0 0 0 0 1 2 3 5 6 6 6 5 5 4 4 3 1 0 0 0 0
0 0 0 0 0 0 0 0 0 0 0 0 0 0 0 0 0 0 0 0 0 0 0 0 0 0 0 0 1 2 4 5 5 4 3 2 3 3 3 2 1 0 0 0
0 0 0 0 0 0 0 0 0 0 0 0 0 0 0 0 0 0 0 0 0 0 0 0 0 0 0 0 0 1 3 4 4 2 1 1 2 4 4 3 2 1 0 0

GEFSCGP_con_probscp_138.txt.gz
Probability
0 0 0 0 0 0 0 0 0 0 0 0 0 0 1 1 3 7 12 15 18 21 28 36 39 39 40 42 43 40 37 40 47 53 54 48 41 35 29 22 17 13 9 5
0 0 0 0 0 0 0 0 0 0 0 0 0 0 1 1 3 6 12 16 17 20 27 33 37 38 38 38 39 38 37 38 42 49 52 51 45 36 28 23 19 13 8 6
0 0 0 0 0 0 0 0 0 0 0 0 0 0 1 2 2 5 11 15 15 18 23 27 29 32 34 34 34 33 33 33 35 40 46 48 44 35 27 24 20 15 10 9
0 0 0 0 0 0 0 0 0 0 0 0 0 0 1 1 1 4 10 13 14 15 17 19 22 26 29 30 30 28 26 27 29 33 37 39 36 31 28 26 21 15 13 13
0 0 0 0 0 0 0 0 0 0 0 0 0 0 0 1 1 3 6 9 11 12 13 14 18 23 26 26 26 23 20 21 24 27 31 32 29 28 28 25 19 14 13 13
0 0 0 0 0 0 0 0 0 0 0 0 0 0 0 0 1 1 4 6 9 10 11 13 16 21 24 23 21 18 15 17 18 19 23 26 25 25 24 20 15 12 12 13
0 0 0 0 0 0 0 0 0 0 0 0 0 0 0 0 0 1 3 4 6 8 11 13 16 20 22 21 18 16 14 14 12 12 14 16 18 18 17 13 10 9 10 12
0 0 0 0 0 0 0 0 0 0 0 0 0 0 0 0 0 1 2 4 5 6 9 12 15 18 20 18 17 15 14 13 9 8 9 10 11 13 14 11 7 7 9 10
0 0 0 0 1 1 0 0 0 0 0 0 0 0 0 0 0 1 3 3 3 2 4 9 13 16 16 15 14 12 12 11 9 8 8 7 7 10 13 11 8 7 9 10
0 0 0 0 1 1 0 0 0 0 0 0 0 0 0 0 0 1 3 3 1 1 3 7 11 14 13 12 11 9 8 9 9 7 6 5 5 7 10 11 9 9 9 10
0 0 0 0 1 1 0 0 0 0 0 0 0 0 0 0 0 0 2 3 2 2 5 8 12 13 13 11 9 7 7 9 9 7 5 2 3 6 8 9 9 9 9 9
0 0 0 0 0 0 0 0 0 0 0 0 0 0 0 0 0 0 1 3 5 5 6 8 11 13 13 11 8 7 7 8 9 8 4 2 2 4 6 8 8 8 8 8
0 0 0 0 0 0 0 0 0 0 0 0 0 0 0 0 0 0 1 3 5 6 5 7 9 11 11 9 8 7 7 7 9 8 5 2 2 3 5 6 7 7 7 7
0 0 0 0 0 0 0 0 0 0 0 0 0 0 1 1 0 0 1 2 4 5 5 6 9 10 8 7 8 7 6 6 7 8 6 4 3 3 4 5 6 7 7 7
1 1 0 0 0 0 0 0 0 0 0 0 0 1 2 2 1 1 2 4 6 7 6 7 10 11 8 7 8 8 6 6 7 7 7 5 4 4 4 6 7 9 8 7
5 3 1 0 0 0 0 0 0 0 1 1 1 1 3 2 1 1 3 5 9 10 9 8 9 12 13 11 9 8 6 6 7 8 7 7 5 5 5 7 11 13 13 12
7 7 4 1 0 0 0 0 0 0 1 1 1 2 3 3 2 3 5 8 12 13 11 8 9 13 15 14 12 10 8 8 9 9 10 9 8 9 10 11 15 20 20 18
9 9 5 2 0 0 0 0 0 0 1 1 2 2 4 6 5 6 10 14 16 16 13 9 9 12 13 13 13 14 14 15 15 14 15 15 14 16 17 18 22 26 26 24
9 8 5 2 1 0 0 0 1 1 1 2 3 4 7 8 6 8 15 19 19 19 16 13 12 12 12 12 14 17 20 21 20 19 21 22 23 26 27 29 33 35 34 32
4 4 3 2 1 0 0 0 1 2 2 2 4 6 9 10 10 13 18 19 18 19 18 17 17 15 15 15 18 21 23 22 22 22 24 26 32 37 40 44 46 44 41 40
1 1 1 1 0 0 0 0 1 3 3 2 4 6 8 10 13 16 16 14 14 14 15 17 19 20 20 22 26 29 29 27 25 25 25 29 34 39 43 48 50 49 46 44
2 1 1 0 1 1 1 1 4 6 4 1 2 4 6 7 9 11 10 9 8 9 11 14 18 20 22 24 27 31 33 31 29 27 27 30 32 33 36 41 45 45 43 42
4 4 3 2 3 4 3 3 5 4 2 0 0 1 2 2 3 5 5 5 5 6 8 12 16 17 17 19 22 26 30 31 29 28 28 29 30 30 31 34 36 36 34 31
4 4 4 3 4 4 3 2 2 1 0 0 0 0 0 1 2 4 4 3 4 5 5 7 11 12 11 13 17 21 26 30 30 28 28 27 28 29 29 28 27 25 23 21
2 2 3 3 3 2 2 1 0 0 0 0 1 1 0 0 1 3 2 1 2 3 2 4 6 6 6 8 12 17 22 27 28 27 24 23 24 25 24 20 16 14 14 14
0 1 1 1 1 1 1 1 0 0 0 1 2 2 1 0 1 1 1 1 1 1 1 3 5 5 3 4 9 13 17 22 24 23 21 19 19 20 19 16 11 7 7 7

GEFSCGP_con_probscp_144.txt.gz
Probability
0 0 0 0 0 0 0 0 0 0 0 0 1 1 2 2 2 4 17 36 50 59 67 72 72 71 72 74 74 72 71 71 69 66 60 52 53 57 55 50 44 36 27 22
0 0 0 0 0 0 0 0 0 0 0 0 0 1 2 4 3 5 17 34 46 54 64 70 70 71 71 71 71 70 70 69 66 64 59 53 52 53 52 49 45 36 27 22
0 0 0 0 0 0 0 0 0 0 0 0 0 1 4 7 5 6 15 29 38 47 60 68 69 68 65 62 62 63 66 66 63 61 58 51 46 45 47 47 43 36 27 21
0 0 0 0 0 0 0 0 0 0 0 0 0 2 5 8 6 7 14 23 30 39 55 65 67 63 57 53 52 55 59 61 59 57 53 46 41 41 44 45 41 37 29 22
0 0 0 0 0 0 0 0 0 0 0 0 0 1 4 6 6 9 14 18 23 34 47 58 60 55 49 46 47 50 53 54 54 51 47 41 38 40 44 45 43 39 31 23
0 0 0 0 0 0 0 0 0 0 0 0 0 1 2 4 5 9 13 16 21 29 40 48 49 45 43 42 44 47 48 48 47 44 40 35 35 40 46 45 41 37 30 24
0 0 0 0 0 0 0 0 0 0 0 0 0 1 2 3 3 6 10 15 22 27 33 39 40 39 40 40 40 42 43 42 40 35 31 28 29 36 42 41 34 30 27 23
0 0 0 0 0 0 0 0 0 0 0 0 0 1 2 3 2 3 7 13 20 24 27 30 31 34 36 35 36 36 36 36 33 29 25 23 24 28 33 34 29 24 22 19
0 0 0 0 0 0 0 0 0 0 0 0 1 1 2 3 2 3 7 11 14 18 22 22 24 29 32 33 33 32 31 29 28 25 21 18 18 20 23 27 27 23 19 17
0 0 0 0 0 0 0 0 0 0 0 0 1 2 2 3 4 6 10 11 10 13 17 18 21 24 28 30 31 30 27 25 25 22 17 14 16 17 19 22 25 25 23 22
0 0 0 0 0 0 0 0 0 0 0 0 0 1 2 3 5 8 12 12 10 11 14 18 20 22 23 26 28 27 23 22 21 19 16 15 16 17 15 16 20 26 29 29
0 0 0 0 0 0 0 0 0 0 0 0 0 0 2 3 5 7 10 11 10 12 17 23 25 23 21 23 24 23 20 18 18 16 15 14 16 16 12 12 17 24 28 27
0 0 0 0 0 0 0 0 0 0 0 0 0 0 2 4 5 6 8 11 14 19 26 32 33 29 23 21 21 19 17 15 14 13 12 13 14 14 12 10 14 19 22 21
0 0 0 0 0 0 0 0 0 0 0 0 1 2 4 7 8 7 8 12 17 25 33 37 39 36 28 23 21 18 14 13 13 11 11 12 13 12 11 10 13 16 17 16
0 0 0 0 0 0 0 0 0 0 0 1 2 6 11 14 12 10 10 13 19 25 29 34 39 41 37 31 26 20 16 14 14 13 12 13 14 13 11 10 13 17 16 13
2 1 1 0 0 0 0 0 0 0 1 2 5 12 19 21 19 16 13 14 21 25 25 29 38 45 46 41 35 28 23 21 21 17 14 15 16 14 12 11 15 19 19 17
7 7 5 1 0 0 0 1 1 1 2 4 11 20 25 26 26 24 19 18 23 28 28 30 37 46 50 48 43 37 30 28 28 24 19 17 17 17 16 15 18 23 25 26
13 14 9 3 1 1 1 2 3 4 6 10 19 24 25 25 27 30 28 26 29 33 35 36 39 43 47 48 46 41 35 32 33 31 27 24 23 22 22 23 27 32 36 37
12 15 11 5 3 1 2 4 6 9 13 18 23 25 23 22 25 30 31 31 34 39 39 39 39 41 44 46 47 44 39 36 35 34 32 32 32 30 28 32 39 44 46 46
9 11 9 4 2 1 3 6 9 13 20 25 26 26 26 25 26 28 29 29 32 36 36 35 37 41 45 48 51 50 45 41 38 36 37 38 39 37 36 39 44 48 49 49
7 7 4 1 1 2 6 10 14 18 25 27 28 29 29 28 26 26 27 26 26 28 29 30 33 38 44 49 53 52 49 46 44 43 43 43 42 40 39 41 43 44 43 42
5 7 6 4 5 6 9 13 17 20 22 22 22 24 25 23 22 23 26 26 24 24 26 27 29 33 38 43 47 47 46 46 45 44 43 42 41 37 35 37 38 37 36 34
7 10 12 12 13 12 10 12 14 14 14 13 13 13 14 17 20 22 23 23 22 22 23 24 24 26 28 32 35 37 39 39 38 36 35 34 32 30 28 29 30 30 29 28
8 12 15 16 15 13 11 10 9 7 7 8 9 9 10 15 17 16 15 15 16 17 17 17 16 17 18 21 25 28 30 30 30 29 27 25 22 21 21 21 20 21 21 22
6 10 12 12 10 10 10 9 7 5 6 9 10 9 9 10 9 7 7 7 10 11 10 9 8 8 8 11 15 18 21 23 23 22 20 18 17 16 17 15 12 11 12 12
4 7 8 8 6 6 7 6 5 5 7 10 11 9 7 6 4 3 3 4 7 8 6 5 4 3 3 5 9 12 15 18 19 19 18 16 17 17 16 13 8 5 4 4

GEFSCGP_con_probscp_150.txt.gz
Probability
0 0 0 0 0 0 0 0 0 0 0 0 0 2 7 13 18 23 28 37 50 55 54 58 64 67 65 59 53 50 47 42 33 24 22 21 18 15 14 13 11 7 4 3
0 0 0 0 0 0 0 0 0 0 0 0 1 3 7 12 15 20 25 34 45 51 56 61 64 65 64 59 54 49 47 44 36 29 25 23 20 17 14 13 12 9 6 5
0 0 0 0 0 0 0 0 0 0 0 0 1 2 4 8 10 14 20 28 38 47 53 58 60 60 57 53 50 46 44 44 40 33 29 26 22 17 14 13 13 11 8 7
0 0 0 0 0 0 0 0 0 0 0 0 1 1 2 4 7 10 16 24 33 41 46 48 50 51 49 44 42 41 41 42 41 35 30 27 23 18 15 14 13 10 8 6
0 0 0 0 0 0 0 0 0 0 0 0 0 0 0 2 5 10 15 21 28 35 37 37 39 42 43 41 38 37 38 39 39 36 31 25 22 19 18 16 13 9 7 6
0 0 0 0 0 0 0 0 0 0 0 0 0 0 0 1 5 10 15 19 23 28 30 30 31 34 36 37 36 34 33 33 33 32 28 22 19 20 22 20 14 9 7 7
0 0 0 0 0 0 0 0 0 0 0 0 0 0 0 1 4 10 14 16 20 22 24 26 26 27 29 31 32 30 28 26 25 25 21 16 15 17 20 20 15 10 9 9
0 0 0 0 0 0 0 0 0 0 0 0 0 0 0 1 5 9 11 12 14 16 19 21 23 23 23 24 26 26 24 21 19 18 15 12 10 11 13 15 14 11 9 10
0 0 0 0 0 0 0 0 0 0 0 0 0 0 0 1 5 8 9 10 11 11 13 16 18 18 17 18 21 23 20 16 13 12 11 10 8 7 8 11 11 8 7 6
0 0 0 0 0 0 0 0 0 0 0 0 0 0 0 1 3 5 7 9 10 9 10 11 12 14 15 16 18 18 15 11 8 8 7 7 6 5 5 8 8 5 3 3
0 0 0 0 0 0 0 0 0 0 0 0 0 0 0 1 2 3 5 8 9 8 7 9 10 13 15 15 15 14 11 7 5 4 4 4 3 3 3 4 4 2 1 2
0 0 0 0 0 0 0 0 0 0 0 0 0 0 0 1 2 3 4 6 6 4 5 7 9 12 13 12 11 11 8 5 2 1 1 1 1 1 1 1 1 1 1 2
0 0 0 0 0 0 0 0 0 0 0 0 0 0 0 1 2 4 5 5 5 3 4 7 9 10 9 8 8 9 7 3 1 0 0 0 0 0 0 0 0 0 1 2
0 0 0 0 0 0 0 0 0 0 0 0 0 0 0 1 2 3 4 5 5 5 5 7 8 7 6 5 6 7 5 3 2 1 1 0 0 0 0 0 0 0 0 1
0 0 0 0 0 0 0 0 0 0 0 0 1 1 1 1 2 3 3 4 6 7 7 6 5 5 5 5 4 4 3 3 2 2 2 2 2 1 0 0 0 0 0 0
1 0 0 0 0 0 1 1 1 2 2 2 2 3 3 5 6 6 5 6 8 10 10 6 4 4 4 5 3 1 1 1 1 2 2 3 4 2 0 1 1 1 0 0
1 0 0 0 0 0 1 2 4 6 8 7 7 8 9 11 12 10 8 9 10 11 12 11 7 5 5 5 4 1 0 0 1 1 1 3 4 3 1 2 2 2 1 0
1 0 0 0 0 1 1 2 5 9 12 12 12 13 14 15 14 13 11 11 11 11 13 14 11 8 6 6 5 3 1 1 1 0 1 2 3 2 2 3 4 4 3 1
0 0 0 0 0 1 2 2 3 7 10 11 13 14 13 13 12 13 12 11 10 10 13 15 14 10 7 6 7 5 4 3 2 1 2 3 3 3 3 4 5 5 4 3
0 0 0 0 1 2 3 3 3 4 7 9 11 11 8 7 8 10 11 10 10 11 12 13 12 8 5 6 8 8 6 6 4 4 4 3 3 3 3 4 4 4 4 5
0 0 0 0 1 3 4 4 4 5 6 7 8 7 4 3 6 8 9 8 9 10 9 9 8 6 5 8 9 9 8 7 6 5 5 4 4 3 3 3 3 3 4 5
1 0 0 0 0 1 2 3 4 5 6 5 4 3 2 4 7 8 7 6 7 7 7 6 6 6 6 7 8 8 7 6 4 5 5 5 4 4 3 3 3 3 3 4
3 1 0 0 1 1 2 3 3 4 5 4 2 2 2 4 6 5 4 4 5 5 5 5 5 4 4 3 3 4 4 3 3 4 5 4 4 3 3 4 4 4 4 4
3 1 0 1 2 4 4 3 2 1 2 3 2 1 1 2 2 2 2 3 3 3 4 4 3 2 1 1 1 1 1 1 2 4 5 4 4 4 4 5 5 5 4 4
2 1 0 1 3 4 4 3 2 1 2 2 1 0 1 1 1 0 1 1 1 1 1 1 1 1 0 0 0 0 0 1 2 4 5 6 6 6 5 4 4 3 3 3
3 2 1 2 3 3 3 2 1 2 2 2 1 0 0 1 0 0 0 0 0 0 0 0 0 0 0 0 0 0 0 0 1 4 6 6 6 6 6 4 3 2 1 1

GEFSCGP_con_probscp_156.txt.gz
Probability
0 0 0 0 0 0 0 0 0 0 0 0 0 1 4 8 11 12 11 11 13 15 18 26 32 33 36 38 37 33 32 30 25 20 15 10 7 4 2 0 0 0 0 0
0 0 0 0 0 0 0 0 0 0 0 0 0 1 5 8 9 9 9 9 12 17 21 26 32 35 37 40 38 33 30 28 24 19 15 11 8 6 3 1 0 0 0 0
0 0 0 0 0 0 0 0 0 0 0 0 0 2 5 6 5 5 5 6 10 18 24 28 32 35 37 40 41 36 32 28 24 19 16 13 10 7 5 2 1 1 2 1
0 0 0 0 0 0 0 0 0 0 0 0 0 1 2 2 1 1 2 4 8 16 24 28 31 33 34 37 40 40 36 31 26 21 19 17 14 10 7 6 4 4 3 3
0 0 0 0 0 0 0 0 0 0 0 0 0 0 0 0 0 0 1 4 7 13 20 25 28 31 32 33 35 36 34 31 28 25 23 21 18 13 10 9 8 7 5 4
0 0 0 0 0 0 0 0 0 0 0 0 0 0 0 0 0 0 0 2 6 13 17 21 26 29 29 29 30 30 30 30 29 26 25 23 21 17 13 11 9 8 6 5
0 0 0 0 0 0 0 0 0 0 0 0 0 0 0 0 0 0 0 1 6 12 17 20 24 26 24 24 25 26 26 28 27 25 24 24 21 18 14 11 9 9 7 6
0 0 0 0 0 0 0 0 0 0 0 0 0 0 0 0 0 0 1 2 6 11 15 19 20 19 18 19 21 22 22 22 22 22 21 21 19 16 12 11 11 10 8 7
0 0 0 0 0 0 0 0 0 0 0 0 0 0 0 0 0 1 2 3 5 8 11 13 13 11 10 13 16 17 15 14 15 15 15 14 12 11 10 10 11 11 8 6
0 0 0 0 0 0 0 0 0 0 0 0 0 0 0 0 0 2 3 3 3 4 6 7 7 6 5 7 11 13 11 10 10 9 8 7 7 7 7 8 9 9 7 5
0 0 0 0 0 0 0 0 0 0 0 0 0 0 0 0 0 1 2 2 1 2 2 3 4 4 2 3 7 8 8 7 7 6 5 4 5 6 6 6 6 6 5 4
0 0 0 0 0 0 0 0 0 0 0 0 0 0 0 0 0 0 1 1 1 1 1 1 2 2 2 3 5 6 6 6 5 5 4 4 4 5 4 3 3 3 3 3
0 0 0 0 0 0 0 0 0 0 0 0 0 0 0 0 0 0 0 0 1 1 1 1 2 3 3 5 6 6 6 5 4 3 4 4 4 3 2 1 1 1 1 1
0 0 0 0 0 0 0 0 0 0 0 0 0 0 0 0 0 0 0 0 0 0 0 1 2 3 3 5 6 6 6 4 2 3 4 5 4 2 1 0 0 0 0 0
0 0 0 0 0 0 1 1 0 0 0 0 0 0 0 0 0 0 0 0 0 0 0 0 1 1 1 3 4 5 4 2 1 2 3 4 4 1 0 0 0 0 0 0
0 0 0 0 0 1 2 2 1 0 0 0 0 1 0 0 0 1 1 0 0 0 0 0 0 0 1 2 3 3 2 1 1 1 2 2 2 0 0 0 0 0 0 0
0 0 0 0 0 1 2 2 1 0 0 0 0 0 0 1 2 3 2 0 0 0 0 0 0 0 1 2 3 2 1 1 1 1 1 1 0 0 0 0 0 0 0 0
0 0 0 0 0 1 2 2 1 1 0 0 1 1 2 3 4 4 2 0 0 0 0 0 0 0 1 2 3 2 1 0 1 1 1 0 0 0 0 0 0 0 0 0
0 0 0 0 0 0 1 2 2 1 0 1 2 3 4 4 4 4 2 1 0 0 0 0 0 0 0 1 1 1 1 0 0 0 0 0 0 0 0 0 0 0 0 0
0 0 0 0 0 0 0 1 1 1 0 2 4 4 4 3 3 3 3 2 1 0 0 0 0 0 0 1 1 0 0 0 0 0 0 0 0 0 0 0 0 0 0 0
0 0 0 0 0 0 0 1 1 0 1 3 5 5 4 3 3 3 4 3 2 1 0 0 0 0 0 0 0 0 0 0 0 0 0 0 0 0 0 0 0 0 0 0
0 0 0 0 0 0 0 1 2 2 3 5 6 5 5 5 4 3 3 4 3 2 0 0 0 0 0 0 0 0 0 0 0 0 0 0 0 0 1 1 0 1 1 1
0 0 0 0 0 0 0 1 2 3 4 5 5 5 4 4 2 2 2 2 2 1 0 0 0 0 0 0 0 0 0 1 0 0 0 0 0 0 1 1 1 2 2 2
0 0 0 0 0 0 0 0 1 2 3 3 3 3 2 1 1 1 1 1 0 0 0 0 0 0 0 0 0 0 0 0 0 0 0 0 0 1 1 2 2 3 3 3
0 0 0 0 0 0 0 1 1 1 1 1 1 1 1 0 0 0 0 0 0 0 0 0 0 0 0 0 0 0 0 0 0 0 0 0 0 1 2 3 3 3 2 2
0 0 0 0 0 0 1 2 2 1 0 0 0 0 1 0 0 0 0 0 0 0 0 0 0 0 0 0 0 0 0 0 0 0 0 0 0 1 3 3 3 2 1 1

GEFSCGP_con_probscp_162.txt.gz
Probability
0 0 0 0 0 0 0 0 0 0 1 0 0 0 1 1 1 3 7 9 13 20 27 33 35 35 34 29 29 32 33 34 36 34 28 22 19 17 12 9 7 6 6 6
0 0 0 0 0 0 0 0 0 0 1 1 0 0 0 0 0 2 4 7 11 17 26 34 37 39 39 37 36 36 36 37 39 38 33 26 22 18 13 12 12 9 6 6
0 0 0 0 0 0 0 0 0 0 0 1 1 0 0 0 0 2 4 7 10 15 25 37 42 43 45 45 44 43 43 43 44 44 39 30 25 20 15 15 17 16 11 9
0 0 0 0 0 0 0 0 0 0 0 0 0 0 0 1 1 3 7 11 12 15 23 35 43 45 46 46 46 47 48 48 49 50 43 33 25 19 16 17 19 20 17 14
0 0 0 0 0 0 0 0 0 0 0 0 0 0 0 1 2 3 6 9 11 14 21 31 38 41 41 42 43 45 48 51 54 53 47 36 27 21 19 20 21 21 21 19
0 0 0 0 0 0 0 0 0 0 0 0 0 0 0 1 1 2 4 5 7 13 20 26 32 38 39 39 38 39 44 51 55 54 48 40 32 29 29 28 26 23 22 22
0 0 0 0 0 0 0 0 0 0 0 0 0 0 1 1 1 2 4 6 8 14 20 25 31 37 39 37 34 35 39 45 49 48 45 40 37 38 37 33 29 23 20 21
0 0 0 0 0 0 0 0 0 0 0 0 0 0 1 1 1 3 7 11 14 17 22 27 31 33 33 31 29 32 36 37 38 38 36 35 36 38 35 30 25 21 18 18
0 0 0 0 0 0 0 0 0 0 0 0 0 0 0 0 1 3 8 13 17 21 24 26 29 30 27 24 24 28 31 30 30 31 30 30 31 31 29 26 24 22 20 18
0 0 0 0 0 0 0 0 0 0 0 0 0 0 0 0 0 3 7 12 16 20 23 24 26 27 25 22 21 24 27 27 27 29 29 27 25 22 22 23 23 24 22 20
0 0 0 0 0 0 0 0 0 0 0 0 0 0 0 0 1 3 8 11 13 16 18 21 22 24 24 22 21 22 24 24 24 26 26 23 19 15 15 18 20 22 21 19
0 0 0 0 0 0 0 0 0 0 0 0 0 0 0 0 1 4 8 9 9 11 13 16 20 24 25 24 22 21 21 21 21 21 19 17 15 13 13 14 16 18 17 15
0 0 0 0 0 0 0 0 0 0 0 0 0 0 0 1 2 4 7 6 5 7 10 15 22 26 27 26 24 22 21 21 21 18 15 13 13 12 11 11 12 12 12 11
1 1 1 0 0 0 0 0 0 0 0 0 0 0 1 1 2 4 6 5 4 6 11 18 24 27 27 25 24 25 23 22 20 17 13 11 10 8 7 7 7 7 8 8
2 2 1 1 0 0 0 0 0 0 0 0 0 1 2 3 3 4 6 6 6 7 11 17 22 24 23 22 23 24 23 21 19 15 11 10 8 5 4 4 5 5 6 7
2 2 1 1 0 0 0 0 0 0 0 0 0 1 4 5 4 5 7 8 9 9 10 13 17 19 18 19 22 22 21 20 17 13 11 11 9 6 4 5 6 6 8 9
4 3 1 1 0 0 0 0 0 0 1 1 1 2 5 7 7 7 8 9 10 10 9 10 11 13 15 17 20 21 20 19 15 13 12 12 11 7 5 6 6 6 8 10
9 6 2 0 0 0 0 1 1 1 2 2 2 3 5 9 11 10 8 7 8 9 10 9 9 11 14 17 20 21 20 18 15 12 12 12 10 7 5 6 5 5 5 6
10 9 4 0 0 0 0 0 1 2 3 3 4 5 6 9 10 9 9 8 7 8 9 9 9 11 14 18 20 20 20 19 16 12 10 9 7 4 4 4 4 4 4 3
8 7 4 0 0 0 1 0 1 2 3 4 5 5 6 8 10 11 11 10 7 8 9 10 10 11 13 16 17 17 18 18 15 12 8 7 5 3 3 4 6 6 5 4
4 4 2 0 0 2 4 4 5 7 9 9 9 8 7 11 16 16 14 11 9 9 10 10 10 10 10 11 12 12 13 13 12 10 7 6 5 4 4 6 8 7 6 5
6 5 3 2 2 5 9 12 12 15 17 18 16 15 14 16 18 16 14 13 12 12 11 10 9 9 9 9 9 8 8 8 8 7 6 5 4 3 3 4 6 6 6 5
12 11 8 6 7 8 12 15 15 16 19 20 19 18 17 16 14 12 11 12 14 15 13 10 9 9 9 9 9 7 6 6 5 4 3 2 1 0 1 1 3 5 5 5
14 13 12 11 11 9 9 10 10 11 14 15 14 13 12 11 10 9 9 12 14 15 13 10 9 8 7 7 7 6 5 5 3 2 1 1 0 0 0 1 2 4 4 4
12 12 12 12 11 8 6 5 6 7 9 10 9 8 7 7 7 8 9 10 12 12 12 11 8 6 5 5 5 5 5 4 3 1 0 0 0 0 0 1 2 3 3 2
10 11 11 10 9 7 6 6 5 6 7 7 7 6 6 7 8 9 9 10 11 11 11 10 7 4 4 4 4 4 5 4 2 1 0 0 0 0 0 1 2 2 2 1

GEFSCGP_con_probscp_168.txt.gz
Probability
0 0 0 0 0 0 0 0 0 0 0 0 0 0 0 0 1 6 20 41 57 63 66 73 77 75 74 78 80 73 65 62 55 48 46 44 38 31 26 26 35 38 34 33
0 0 0 0 0 0 0 0 0 0 0 0 0 0 0 0 1 7 21 39 55 65 72 78 81 80 80 84 85 79 71 65 58 52 51 50 45 37 29 29 37 40 36 34
0 0 0 0 0 0 0 0 0 0 0 0 1 1 2 3 3 8 20 35 50 65 78 83 84 85 86 89 89 83 78 74 66 59 56 55 53 45 38 36 38 38 34 31
0 0 0 0 0 0 0 0 0 0 0 0 0 2 5 8 7 8 18 31 44 60 77 85 86 87 88 87 84 81 81 80 74 66 61 59 57 51 45 40 37 35 33 31
0 0 0 0 0 0 0 0 0 0 0 0 0 2 7 11 9 8 14 26 38 52 70 82 85 85 83 77 75 77 80 80 77 71 68 65 61 56 49 42 35 34 35 35
0 0 0 0 0 0 0 0 0 0 0 0 0 2 6 10 10 8 13 22 31 42 59 74 79 79 75 70 71 73 74 75 73 70 70 68 64 61 55 47 38 33 34 36
0 0 0 0 0 0 0 0 0 0 0 0 0 2 6 10 11 11 14 20 24 31 47 63 71 72 70 70 71 70 68 66 63 64 66 66 62 60 56 49 40 34 32 33
0 0 0 0 0 0 0 0 0 0 0 0 1 4 8 11 12 14 16 18 21 26 39 53 63 68 69 70 70 68 65 61 57 58 61 59 56 53 49 45 40 36 34 32
0 0 0 0 0 0 0 0 0 0 0 0 2 6 9 10 12 14 14 16 20 26 35 45 57 66 69 68 67 65 63 59 56 55 54 52 48 47 47 45 41 39 37 35
0 0 0 0 0 0 0 0 0 0 0 0 1 4 9 12 12 11 12 14 19 25 30 39 53 63 66 64 62 60 58 55 53 50 47 43 42 45 49 48 44 42 40 39
0 0 0 0 0 0 0 0 0 0 0 0 1 3 9 12 10 9 12 16 20 23 28 36 48 57 59 58 56 54 50 47 46 45 42 41 41 43 47 47 43 41 40 38
0 0 0 0 0 0 0 0 0 0 0 0 1 4 8 10 10 12 17 22 23 25 30 38 45 49 51 50 49 47 44 41 40 41 40 41 41 41 42 42 39 37 35 33
0 0 0 0 0 0 0 0 0 0 0 0 1 5 8 10 13 18 23 25 25 27 34 40 42 43 44 44 43 41 39 36 36 37 38 39 38 35 36 36 35 32 29 27
0 0 0 0 0 0 0 0 0 0 0 0 1 6 12 17 21 25 27 28 28 31 36 39 39 38 38 38 36 34 33 33 33 35 36 36 33 30 30 31 30 27 24 22
0 0 0 0 0 0 0 0 0 0 0 0 2 8 17 25 30 31 32 33 34 34 34 35 34 33 32 31 31 30 30 32 33 35 35 33 30 28 27 26 25 23 21 19
0 0 0 0 0 0 0 0 0 0 0 2 7 14 23 32 37 39 38 38 39 36 32 31 30 29 27 27 28 28 29 31 33 34 33 31 28 25 23 20 19 19 18 16
1 2 1 0 0 0 1 0 0 1 1 5 13 23 31 37 43 46 45 44 45 41 35 32 30 28 26 26 26 25 27 29 31 32 31 28 24 19 16 16 16 16 14 12
5 6 4 1 0 0 0 0 1 4 7 12 21 31 37 42 46 49 50 50 49 46 40 36 32 29 26 24 22 22 24 26 29 29 27 23 18 14 13 14 16 15 12 9
6 7 5 1 0 0 1 3 6 11 18 26 35 39 40 40 42 48 51 50 48 45 40 35 32 28 24 22 21 22 23 24 25 25 23 21 17 15 14 13 14 13 10 8
4 5 3 1 0 1 4 8 12 19 29 41 48 45 40 38 41 47 49 45 39 36 32 29 27 25 23 22 23 24 23 23 22 20 20 20 20 17 15 13 13 10 8 8
1 2 1 0 0 3 9 15 22 30 40 50 53 48 43 43 47 48 45 37 30 26 23 22 22 22 23 23 23 22 21 21 19 18 17 17 17 15 14 14 12 9 6 4
2 3 5 6 7 12 20 27 34 41 46 50 51 49 47 46 46 44 38 30 24 22 21 20 21 22 22 21 19 18 17 15 14 14 12 11 11 10 10 10 8 5 2 1
11 12 16 17 18 25 31 34 38 41 40 40 42 42 41 38 35 31 27 24 21 20 21 21 21 21 20 17 15 14 13 10 9 9 8 7 6 5 5 5 3 1 0 0
20 21 22 22 23 26 28 29 31 31 29 28 27 27 26 25 24 23 21 20 18 18 20 19 19 18 15 11 9 11 11 10 7 6 5 4 3 3 3 2 1 0 0 0
21 23 23 21 20 19 19 22 26 28 24 20 18 17 16 17 18 19 19 18 17 17 17 16 16 15 11 7 5 7 10 10 7 5 4 3 2 1 1 1 0 0 0 0
18 21 23 22 18 16 16 19 25 26 23 19 17 16 14 14 15 17 17 17 16 16 15 16 15 12 8 5 3 5 7 8 5 4 3 3 1 0 0 0 0 0 0 0